Regional Weather Roundup
Issued by NWS

Home | Current Version | Previous Version | Graphics & Text | Print | Product List | Glossary On
Versions: 1 2 3 4 5 6 7 8 9 10 11 12 13 14 15 16 17 18 19 20 21 22 23 24 25 26 27 28 29 30 31 32 33 34 35 36 37 38 39 40 41 42 43 44 45 46 47 48 49 50
000
ASUS43 KFSD 190810
RWRSD

WEATHER ROUNDUP FOR SOUTH DAKOTA
NATIONAL WEATHER SERVICE SIOUX FALLS SD
300 AM CDT SAT APR 19 2014

NOTE: "FAIR" INDICATES FEW OR NO CLOUDS BELOW 12,000 FEET WITH NO
SIGNIFICANT WEATHER AND/OR OBSTRUCTIONS TO VISIBILITY.


SDZ001>005-009-010-012>017-190900-
NORTHWEST AND NORTH CENTRAL SOUTH DAKOTA

CITY           SKY/WX    TMP DP  RH WIND       PRES   REMARKS
BUFFALO          N/A     41  31  67 W18       29.79R
FAITH            N/A     43  36  76 NW14      29.85R
MOBRIDGE       MOCLDY    49  40  71 NW25G37   29.75R
$$

SDZ012>016-024>037-041>051-057-063-072>074-190900-
SOUTHWEST AND SOUTH CENTRAL SOUTH DAKOTA

CITY           SKY/WX    TMP DP  RH WIND       PRES   REMARKS
RAPID CTY ARPT CLOUDY    47  35  63 N20G28    29.88R
PIERRE         MOCLDY    55  40  56 NW25G32   29.76R
CUSTER         CLOUDY    46  34  62 NW5       29.88R
ELLSWORTH AFB  CLOUDY    47  35  62 N20       29.88R
PHILIP         MOCLDY    51  40  65 NW22G35   29.85R
PINE RIDGE     CLOUDY    53  38  56 N23G32    29.88R
SPEARFISH      CLOUDY    45  23  42 W9        29.93R
WINNER         FAIR      65  43  44 SW31G40   29.75F
$$

SDZ004>011-016>023-039-040-190900-
NORTHEAST SOUTH DAKOTA

CITY           SKY/WX    TMP DP  RH WIND       PRES   REMARKS
ABERDEEN       CLOUDY    56  42  59 S25G35    29.69S
WATERTOWN      CLOUDY    51  39  63 S20       29.81F
SISSETON         N/A     45  37  73 S22G28    29.78F
$$

SDZ017-020-022-023-036>040-048>070-190900-
SOUTHEAST SOUTH DAKOTA

CITY           SKY/WX    TMP DP  RH WIND       PRES   REMARKS
SIOUX FALLS    MOCLDY    57  40  52 S23G31    29.91S
HURON          CLOUDY    59  42  53 S22G32    29.75F
CHAMBERLAIN      N/A     64  43  46 SW23      29.75F
MITCHELL       CLOUDY    60  43  53 S22       29.84F
YANKTON        PTCLDY    55  41  58 S17G24    29.90F
$$

ABBREVIATIONS USED IN REMARKS
   TC - TEMPERATURE IN CELSIUS
  WCI - WIND CHILL INDEX
   HX - HEAT INDEX
  VSB - VISIBILITY




USA.gov is the U.S. government's official web portal to all federal, state and local government web resources and services.